Change the Weather History Date:

Monday, December 30, 2013

  Actual Average Record
Temperature  
Mean Temperature 33 °F 32 °F  
Max Temperature 37 °F 40 °F 69 °F (1915)
Min Temperature 28 °F 23 °F -20 °F (1917)
Degree Days  
Heating Degree Days 32 33  
Month to date heating degree days 820 919  
Since 1 July heating degree days 2002 2059  
Cooling Degree Days 0 0  
Month to date cooling degree days 0 0  
Year to date cooling degree days 615 557  
Moisture  
Dew Point 28 °F    
Average Humidity 85    
Maximum Humidity 92    
Minimum Humidity 78    
Precipitation  
Precipitation 0.03 in 0.09 in 1.78 in (1969)
Month to date precipitation 6.36 2.91  
Year to date precipitation 42.84 41.10  
Snow  
Snow 0.00 in - - ()
Month to date snowfall 6.8  
Since 1 September snowfall 13.3  
Snow Depth 0.00 in    
Sea Level Pressure  
Sea Level Pressure 30.08 in    
Wind  
Wind Speed 7 mph (NW)    
Max Wind Speed 15 mph    
Max Gust Speed 20 mph    
Visibility 8 miles    
Events Rain , Snow    
T = Trace of Precipitation, MM = Missing Value Source: NWS Daily Summary

Daily Weather History Graph

Daily Weather History Graph

Search for Another Location

Airport or City:

Trip Planner

Search our weather history database for the weather conditions in past years. The results will help you decide how hot, cold, wet, or windy it might be!

Date:

Astronomy

Dec. 30, 2013 Rise Set
Actual Time 7:39 AM EST 5:14 PM EST
Civil Twilight 7:10 AM EST 5:44 PM EST
Nautical Twilight 6:37 AM EST 6:17 PM EST
Astronomical Twilight 6:05 AM EST 6:49 PM EST
Moon 5:28 AM EST (12/30) 3:45 PM EST (12/30)
Length of Visible Light 10h 33m
Length of Day
9h 35m
Waning Crescent, 5% of the Moon is Illuminated
Dec 30
Waning Crescent
Jan 1
New
Jan 7
First Quarter
Jan 15
Full
Jan 24
Last Quarter

Hourly Weather History & Observations

Time (EST) Temp. Windchill Dew Point Humidity Pressure Visibility Wind Dir Wind Speed Gust Speed Precip Events Conditions
12:39 AM 37.4 °F 34.9 °F 33.8 °F 87% 29.92 in 9.0 mi SW 3.5 mph - N/A   Overcast
12:51 AM 37.0 °F 32.4 °F 33.1 °F 86% 29.97 in 10.0 mi SW 5.8 mph - N/A   Overcast
12:58 AM 37.4 °F 32.8 °F 33.8 °F 87% 29.92 in 8.0 mi SW 5.8 mph - 0.00 in Rain Light Rain
1:51 AM 37.0 °F 31.0 °F 34.0 °F 89% 29.97 in 10.0 mi SW 8.1 mph - 0.00 in   Overcast
2:51 AM 37.0 °F 31.6 °F 34.0 °F 89% 29.99 in 8.0 mi WSW 6.9 mph - N/A   Overcast
3:51 AM 37.0 °F 32.4 °F 34.0 °F 89% 29.99 in 10.0 mi WSW 5.8 mph - N/A   Overcast
4:51 AM 37.0 °F 30.4 °F 34.0 °F 89% 30.00 in 8.0 mi West 9.2 mph - 0.01 in Rain Light Rain
5:51 AM 34.0 °F 25.5 °F 30.9 °F 89% 30.04 in 6.0 mi NW 11.5 mph - 0.02 in Rain Light Rain
6:23 AM 33.8 °F 27.0 °F 30.2 °F 87% 30.00 in 2.0 mi NNW 8.1 mph - 0.00 in Snow Light Snow
6:35 AM 33.8 °F 27.0 °F 30.2 °F 87% 30.01 in 2.0 mi NNW 8.1 mph - 0.00 in Snow Light Snow
6:47 AM 32.0 °F 24.2 °F 30.2 °F 93% 30.01 in 1.8 mi NNW 9.2 mph - 0.00 in Snow Light Snow
6:51 AM 32.0 °F 23.0 °F 30.0 °F 92% 30.07 in 2.0 mi North 11.5 mph - 0.00 in Snow Light Snow
7:14 AM 32.0 °F 23.6 °F 28.4 °F 87% 30.01 in 3.0 mi NNW 10.4 mph - 0.00 in Snow Light Snow
7:51 AM 30.9 °F 22.2 °F 28.0 °F 89% 30.11 in 5.0 mi NW 10.4 mph - 0.00 in   Overcast
8:19 AM 30.2 °F 21.3 °F 28.4 °F 93% 30.04 in 6.0 mi NNW 10.4 mph - N/A   Overcast
8:26 AM 30.2 °F 21.9 °F 28.4 °F 93% 30.04 in 6.0 mi NW 9.2 mph - N/A   Overcast
8:51 AM 30.9 °F 21.2 °F 28.0 °F 89% 30.12 in 10.0 mi NNW 12.7 mph - N/A   Overcast
9:24 AM 30.2 °F 21.9 °F 28.4 °F 93% 30.07 in 2.5 mi NW 9.2 mph - 0.00 in Snow Light Snow
9:30 AM 30.2 °F 23.4 °F 28.4 °F 93% 30.07 in 1.8 mi NW 6.9 mph - 0.00 in Snow Light Snow
9:32 AM 30.2 °F 22.6 °F 28.4 °F 93% 30.08 in 2.0 mi WNW 8.1 mph - 0.00 in Snow Light Snow
9:42 AM 30.2 °F 22.6 °F 28.4 °F 93% 30.08 in 4.0 mi NNW 8.1 mph - 0.00 in   Overcast
9:51 AM 30.0 °F 21.1 °F 27.0 °F 88% 30.17 in 6.0 mi NW 10.4 mph - 0.00 in   Overcast
10:51 AM 30.0 °F 24.1 °F 26.1 °F 85% 30.17 in 10.0 mi WNW 5.8 mph - N/A   Overcast
11:03 AM 30.2 °F 25.4 °F 26.6 °F 86% 30.08 in 10.0 mi WNW 4.6 mph - N/A   Overcast
11:16 AM 30.2 °F 26.7 °F 26.6 °F 86% 30.08 in 10.0 mi Variable 3.5 mph - N/A   Overcast
11:26 AM 30.2 °F 24.3 °F 24.8 °F 80% 30.07 in 10.0 mi NW 5.8 mph - N/A   Overcast
11:36 AM 30.2 °F 21.9 °F 26.6 °F 86% 30.07 in 10.0 mi NNW 9.2 mph - N/A   Overcast
11:51 AM 30.0 °F 23.2 °F 24.1 °F 79% 30.15 in 10.0 mi NW 6.9 mph - N/A   Overcast
12:51 PM 30.0 °F 21.1 °F 26.1 °F 85% 30.15 in 10.0 mi West 10.4 mph - N/A   Overcast
1:51 PM 30.0 °F 24.1 °F 25.0 °F 82% 30.14 in 10.0 mi NW 5.8 mph - N/A   Overcast
1:59 PM 30.2 °F 23.4 °F 26.6 °F 86% 30.07 in 10.0 mi NNW 6.9 mph - N/A   Overcast
2:09 PM 30.2 °F 24.3 °F 26.6 °F 86% 30.07 in 9.0 mi North 5.8 mph - N/A   Overcast
2:44 PM 28.4 °F 21.2 °F 26.6 °F 93% 30.07 in 4.0 mi North 6.9 mph - N/A   Overcast
2:51 PM 28.9 °F 22.8 °F 26.1 °F 89% 30.14 in 3.0 mi North 5.8 mph - N/A   Overcast
2:58 PM 28.4 °F 20.4 °F 26.6 °F 93% 30.06 in 2.0 mi North 8.1 mph - N/A   Overcast
3:14 PM 28.4 °F 22.2 °F 26.6 °F 93% 30.07 in 4.0 mi NNW 5.8 mph - N/A   Overcast
3:51 PM 28.0 °F 21.7 °F 26.1 °F 92% 30.14 in 6.0 mi North 5.8 mph - N/A   Overcast
4:17 PM 28.4 °F 23.3 °F 26.6 °F 93% 30.06 in 9.0 mi NNE 4.6 mph - N/A   Overcast
4:51 PM 28.9 °F - 26.1 °F 89% 30.14 in 10.0 mi Calm Calm - N/A   Overcast
5:51 PM 28.9 °F 23.9 °F 25.0 °F 85% 30.16 in 10.0 mi North 4.6 mph - N/A   Overcast
6:41 PM 28.4 °F - 24.8 °F 86% 30.09 in 10.0 mi Calm Calm - N/A   Overcast
6:48 PM 28.4 °F - 24.8 °F 86% 30.09 in 10.0 mi Calm Calm - N/A   Overcast
6:51 PM 28.9 °F 25.2 °F 25.0 °F 85% 30.17 in 10.0 mi North 3.5 mph - N/A   Overcast
7:51 PM 28.0 °F - 24.1 °F 85% 30.18 in 10.0 mi Calm Calm - N/A   Overcast
8:25 PM 28.4 °F 24.6 °F 24.8 °F 86% 30.09 in 10.0 mi WNW 3.5 mph - N/A   Overcast
8:34 PM 28.4 °F 23.3 °F 24.8 °F 86% 30.09 in 10.0 mi West 4.6 mph - N/A   Overcast
8:41 PM 28.4 °F - 24.8 °F 86% 30.09 in 10.0 mi Calm Calm - N/A   Overcast
8:51 PM 28.9 °F 23.9 °F 24.1 °F 82% 30.19 in 10.0 mi Variable 4.6 mph - N/A   Overcast
9:51 PM 28.9 °F 23.9 °F 24.1 °F 82% 30.18 in 10.0 mi SW 4.6 mph - N/A   Overcast
10:51 PM 28.9 °F 22.8 °F 24.1 °F 82% 30.19 in 10.0 mi West 5.8 mph - N/A   Overcast
11:14 PM 28.4 °F 21.2 °F 24.8 °F 86% 30.09 in 10.0 mi WSW 6.9 mph - N/A   Overcast
11:51 PM 28.9 °F 20.4 °F 24.1 °F 82% 30.18 in 10.0 mi West 9.2 mph - N/A   Overcast